Location: Unspecified
(0.0000°N, 0.0000°E)
Time: 12:11:15
(UTC+00:00)

Vanguard 1 - Visible Passes

Search period start: 04 December 2022 00:00
Search period end: 14 December 2022 00:00
Orbit: 650 x 3831 km, 34.2° (Epoch: 03 December)

Date Brightness Start Highest point End Pass type
(mag) Time Alt. Az. Time Alt. Az. Time Alt. Az.
04 Dec 11.9 04:17:43 21° NNW 04:23:43 51° NE 04:38:26 10° ESE visible
04 Dec 11.9 19:02:46 10° W 19:11:36 28° NW 19:16:45 12° N visible
05 Dec 12.8 02:24:44 11° NE 02:24:44 11° NE 02:26:29 10° ENE visible
05 Dec 11.6 04:37:26 19° NW 04:44:17 70° NE 05:00:24 10° ESE visible
05 Dec 12.2 19:26:04 10° W 19:32:03 17° NW 19:36:27 10° N visible
06 Dec 12.4 02:44:27 20° NE 02:44:27 20° NE 02:51:09 10° E visible
06 Dec 11.5 04:57:10 14° NW 05:05:03 87° SW 05:21:59 10° SE visible
07 Dec 11.8 03:04:11 31° NE 03:04:36 31° NE 03:14:13 10° ESE visible
07 Dec 11.8 05:17:06 10° WNW 05:26:05 66° SSW 05:43:15 10° SE visible
08 Dec 11.1 03:23:53 45° NNE 03:25:00 47° NE 03:36:33 10° ESE visible
08 Dec 12.3 18:01:10 10° W 18:13:03 32° NW 18:20:11 10° NNE visible
09 Dec 10.7 03:43:36 54° NNW 03:45:30 70° NE 03:58:22 10° ESE visible
09 Dec 12.4 18:24:31 10° W 18:33:35 22° NW 18:39:40 10° N visible
10 Dec 10.8 04:03:16 45° WNW 04:06:12 83° SW 04:19:46 10° SE visible
10 Dec 12.7 18:49:06 10° WNW 18:54:17 14° NW 18:58:22 10° NNW visible
11 Dec 12.5 02:10:15 19° E 02:10:15 19° E 02:13:26 10° E visible
11 Dec 11.2 04:22:57 30° W 04:27:11 59° SSW 04:40:53 10° SE visible
12 Dec 11.9 02:29:55 31° E 02:29:55 31° E 02:35:34 10° ESE visible
12 Dec 11.8 04:42:36 18° W 04:48:26 43° SSW 05:01:46 10° SE visible
13 Dec 11.2 02:49:34 48° ESE 02:49:34 48° ESE 02:57:10 10° ESE visible
13 Dec 12.2 05:02:27 10° W 05:09:57 32° SSW 05:22:30 10° SE visible
